Wetterdaten: Mittwoch, 17.06.2015
Datum Zeit Auen-Temp. Temp gefhlt Luftfeuchte Luftdruck Regen Wind Richtung Richtung Taupunkt Windben
17.06.2015 00:00 12,0 C 11,8 C 87 % 1021,2 hPa 0,0 mm 0,3 km/h (0 Bft) S-SO 157 9,9 C 0,0 km/h (0 Bft)
17.06.2015 00:05 11,9 C 11,8 C 87 % 1021,2 hPa 0,0 mm 0,3 km/h (0 Bft) SO 135 9,8 C 0,0 km/h (0 Bft)
17.06.2015 00:10 11,7 C 11,5 C 87 % 1021,2 hPa 0,0 mm 0,0 km/h (0 Bft) S 180 9,6 C 0,0 km/h (0 Bft)
17.06.2015 00:15 11,7 C 11,5 C 87 % 1021,3 hPa 0,0 mm 0,0 km/h (0 Bft) S-SO 157 9,6 C 0,0 km/h (0 Bft)
17.06.2015 00:20 11,5 C 11,4 C 87 % 1021,3 hPa 0,0 mm 0,0 km/h (0 Bft) S 180 9,4 C 0,0 km/h (0 Bft)
17.06.2015 00:25 11,4 C 11,3 C 87 % 1021,3 hPa 0,0 mm 0,0 km/h (0 Bft) O-SO 112 9,3 C 0,0 km/h (0 Bft)
17.06.2015 00:30 11,3 C 11,1 C 87 % 1021,3 hPa 0,0 mm 0,0 km/h (0 Bft) S-SO 157 9,2 C 0,0 km/h (0 Bft)
17.06.2015 00:35 11,2 C 11,0 C 87 % 1021,4 hPa 0,0 mm 0,0 km/h (0 Bft) S 180 9,1 C 0,0 km/h (0 Bft)
17.06.2015 00:40 11,1 C 10,9 C 87 % 1021,4 hPa 0,0 mm 0,0 km/h (0 Bft) SO 135 9,0 C 0,0 km/h (0 Bft)
17.06.2015 00:45 11,0 C 10,8 C 88 % 1021,4 hPa 0,0 mm 0,0 km/h (0 Bft) S 180 9,1 C 0,0 km/h (0 Bft)
17.06.2015 00:50 11,0 C 10,8 C 88 % 1021,4 hPa 0,0 mm 0,0 km/h (0 Bft) SO 135 9,1 C 0,0 km/h (0 Bft)
17.06.2015 00:55 11,0 C 10,8 C 88 % 1021,2 hPa 0,0 mm 0,0 km/h (0 Bft) S-SO 157 9,1 C 0,0 km/h (0 Bft)
17.06.2015 01:00 11,0 C 10,8 C 88 % 1021,2 hPa 0,0 mm 0,5 km/h (0 Bft) S-SO 157 9,1 C 3,1 km/h (1 Bft)
17.06.2015 01:05 11,0 C 10,8 C 88 % 1021,2 hPa 0,0 mm 1,0 km/h (0 Bft) S-SO 157 9,1 C 3,6 km/h (1 Bft)
17.06.2015 01:10 10,9 C 10,8 C 89 % 1021,2 hPa 0,0 mm 0,8 km/h (0 Bft) S-SO 157 9,2 C 0,0 km/h (0 Bft)
17.06.2015 01:15 10,8 C 10,6 C 89 % 1021,1 hPa 0,0 mm 0,3 km/h (0 Bft) S-SO 157 9,1 C 0,0 km/h (0 Bft)
17.06.2015 01:20 10,5 C 10,4 C 89 % 1021,1 hPa 0,0 mm 0,0 km/h (0 Bft) S 180 8,8 C 0,0 km/h (0 Bft)
17.06.2015 01:25 10,3 C 10,2 C 89 % 1021,1 hPa 0,0 mm 0,0 km/h (0 Bft) SO 135 8,6 C 0,0 km/h (0 Bft)
17.06.2015 01:30 10,5 C 10,3 C 89 % 1021,1 hPa 0,0 mm 0,0 km/h (0 Bft) S-SO 157 8,8 C 0,0 km/h (0 Bft)
17.06.2015 01:35 10,6 C 10,4 C 89 % 1021,2 hPa 0,0 mm 0,0 km/h (0 Bft) O-SO 112 8,9 C 0,0 km/h (0 Bft)
17.06.2015 01:40 10,1 C 10,0 C 89 % 1021,2 hPa 0,0 mm 0,0 km/h (0 Bft) S 180 8,4 C 0,0 km/h (0 Bft)
17.06.2015 01:45 10,2 C 10,0 C 89 % 1021,2 hPa 0,0 mm 0,0 km/h (0 Bft) S 180 8,5 C 0,0 km/h (0 Bft)
17.06.2015 01:50 10,1 C 9,9 C 89 % 1021,2 hPa 0,0 mm 0,0 km/h (0 Bft) S 180 8,4 C 0,0 km/h (0 Bft)
17.06.2015 01:55 10,1 C 10,0 C 87 % 1021,2 hPa 0,0 mm 0,5 km/h (0 Bft) S 180 8,0 C 0,0 km/h (0 Bft)
17.06.2015 02:00 10,0 C 9,9 C 89 % 1021,2 hPa 0,0 mm 0,3 km/h (0 Bft) S 180 8,3 C 3,9 km/h (1 Bft)
17.06.2015 02:05 10,1 C 10,0 C 87 % 1021,2 hPa 0,0 mm 0,0 km/h (0 Bft) S 180 8,0 C 0,0 km/h (0 Bft)
17.06.2015 02:10 10,2 C 10,3 C 87 % 1021,2 hPa 0,0 mm 0,0 km/h (0 Bft) S-SO 157 8,1 C 0,0 km/h (0 Bft)
17.06.2015 02:15 10,4 C 10,4 C 87 % 1021,2 hPa 0,0 mm 0,0 km/h (0 Bft) S-SO 157 8,3 C 0,0 km/h (0 Bft)
17.06.2015 02:20 10,6 C 10,5 C 90 % 1021,2 hPa 0,0 mm 0,0 km/h (0 Bft) S 180 9,0 C 0,0 km/h (0 Bft)
17.06.2015 02:25 10,4 C 10,4 C 90 % 1021,2 hPa 0,0 mm 0,0 km/h (0 Bft) S-SW 202 8,8 C 0,0 km/h (0 Bft)
17.06.2015 02:30 10,3 C 10,3 C 90 % 1021,2 hPa 0,0 mm 0,0 km/h (0 Bft) S-SW 202 8,7 C 0,0 km/h (0 Bft)
17.06.2015 02:35 10,2 C 10,2 C 87 % 1021,4 hPa 0,0 mm 0,0 km/h (0 Bft) S-SW 202 8,1 C 0,0 km/h (0 Bft)
17.06.2015 02:40 10,2 C 10,3 C 87 % 1021,4 hPa 0,0 mm 0,0 km/h (0 Bft) O-SO 112 8,1 C 0,0 km/h (0 Bft)
17.06.2015 02:45 10,3 C 10,3 C 87 % 1021,4 hPa 0,0 mm 0,0 km/h (0 Bft) O-SO 112 8,2 C 0,0 km/h (0 Bft)
17.06.2015 02:50 10,5 C 10,5 C 87 % 1021,4 hPa 0,0 mm 0,5 km/h (0 Bft) O-SO 112 8,4 C 4,7 km/h (1 Bft)
17.06.2015 02:55 10,6 C 10,6 C 87 % 1021,6 hPa 0,0 mm 0,5 km/h (0 Bft) O-SO 112 8,5 C 0,0 km/h (0 Bft)
17.06.2015 03:00 10,7 C 10,7 C 87 % 1021,6 hPa 0,0 mm 0,3 km/h (0 Bft) W-SW 247 8,6 C 0,0 km/h (0 Bft)
17.06.2015 03:05 10,7 C 10,7 C 87 % 1021,6 hPa 0,0 mm 0,3 km/h (0 Bft) W-SW 247 8,6 C 0,0 km/h (0 Bft)
17.06.2015 03:10 10,7 C 10,7 C 87 % 1021,6 hPa 0,0 mm 0,5 km/h (0 Bft) W 270 8,6 C 0,0 km/h (0 Bft)
17.06.2015 03:15 10,8 C 10,7 C 91 % 1021,6 hPa 0,0 mm 0,5 km/h (0 Bft) NW 315 9,4 C 0,0 km/h (0 Bft)
17.06.2015 03:20 10,8 C 10,7 C 91 % 1021,6 hPa 0,0 mm 0,0 km/h (0 Bft) W 270 9,4 C 0,0 km/h (0 Bft)
17.06.2015 03:25 10,8 C 10,7 C 90 % 1021,6 hPa 0,0 mm 0,0 km/h (0 Bft) W-NW 292 9,2 C 0,0 km/h (0 Bft)
17.06.2015 03:30 10,8 C 10,7 C 90 % 1021,6 hPa 0,0 mm 0,0 km/h (0 Bft) W 270 9,2 C 0,0 km/h (0 Bft)
17.06.2015 03:35 10,7 C 10,6 C 88 % 1021,6 hPa 0,0 mm 0,0 km/h (0 Bft) W-SW 247 8,8 C 0,0 km/h (0 Bft)
17.06.2015 03:40 10,7 C 10,6 C 90 % 1021,6 hPa 0,0 mm 2,1 km/h (1 Bft) S-SW 202 9,1 C 8,3 km/h (2 Bft)
17.06.2015 03:45 10,8 C 10,6 C 90 % 1021,6 hPa 0,0 mm 2,3 km/h (1 Bft) S 180 9,2 C 0,0 km/h (0 Bft)
17.06.2015 03:50 10,9 C 10,7 C 90 % 1021,6 hPa 0,0 mm 2,6 km/h (1 Bft) SW 225 9,3 C 3,4 km/h (1 Bft)
17.06.2015 03:55 10,9 C 10,7 C 90 % 1021,5 hPa 0,0 mm 1,8 km/h (1 Bft) SW 225 9,3 C 3,1 km/h (1 Bft)
17.06.2015 04:00 10,9 C 10,7 C 90 % 1021,5 hPa 0,0 mm 0,5 km/h (0 Bft) W-SW 247 9,3 C 0,0 km/h (0 Bft)
17.06.2015 04:05 10,9 C 10,7 C 90 % 1021,5 hPa 0,0 mm 0,3 km/h (0 Bft) W-NW 292 9,3 C 0,0 km/h (0 Bft)
17.06.2015 04:10 10,9 C 10,7 C 90 % 1021,5 hPa 0,0 mm 0,3 km/h (0 Bft) SW 225 9,3 C 0,0 km/h (0 Bft)
17.06.2015 04:15 10,9 C 10,7 C 90 % 1021,6 hPa 0,0 mm 0,0 km/h (0 Bft) SW 225 9,3 C 0,0 km/h (0 Bft)
17.06.2015 04:20 10,9 C 10,7 C 90 % 1021,6 hPa 0,0 mm 0,0 km/h (0 Bft) S-SW 202 9,3 C 0,0 km/h (0 Bft)
17.06.2015 04:25 10,9 C 10,8 C 87 % 1021,6 hPa 0,0 mm 0,0 km/h (0 Bft) S 180 8,8 C 0,0 km/h (0 Bft)
17.06.2015 04:30 11,0 C 10,8 C 89 % 1021,6 hPa 0,0 mm 0,0 km/h (0 Bft) SW 225 9,3 C 0,0 km/h (0 Bft)
17.06.2015 04:35 11,0 C 10,8 C 89 % 1021,6 hPa 0,0 mm 0,0 km/h (0 Bft) W 270 9,3 C 0,0 km/h (0 Bft)
17.06.2015 04:40 11,0 C 10,8 C 89 % 1021,6 hPa 0,0 mm 0,0 km/h (0 Bft) N-NW 337 9,3 C 0,0 km/h (0 Bft)
17.06.2015 04:45 10,9 C 10,7 C 89 % 1021,6 hPa 0,0 mm 0,0 km/h (0 Bft) NW 315 9,2 C 0,0 km/h (0 Bft)
17.06.2015 04:50 10,9 C 10,7 C 89 % 1021,6 hPa 0,0 mm 0,0 km/h (0 Bft) NW 315 9,2 C 0,0 km/h (0 Bft)
17.06.2015 04:55 10,9 C 10,7 C 89 % 1021,7 hPa 0,0 mm 0,0 km/h (0 Bft) NW 315 9,2 C 0,0 km/h (0 Bft)
17.06.2015 05:00 10,9 C 10,7 C 89 % 1021,7 hPa 0,0 mm 0,0 km/h (0 Bft) N-NO 22 9,2 C 0,0 km/h (0 Bft)
17.06.2015 05:05 10,9 C 10,8 C 87 % 1021,7 hPa 0,0 mm 0,0 km/h (0 Bft) W-SW 247 8,8 C 0,0 km/h (0 Bft)
17.06.2015 05:10 10,9 C 10,8 C 87 % 1021,7 hPa 0,0 mm 0,0 km/h (0 Bft) W-SW 247 8,8 C 0,0 km/h (0 Bft)
17.06.2015 05:15 10,9 C 10,8 C 87 % 1021,9 hPa 0,0 mm 0,3 km/h (0 Bft) S-SO 157 8,8 C 3,4 km/h (1 Bft)
17.06.2015 05:20 11,0 C 10,9 C 87 % 1021,9 hPa 0,0 mm 2,1 km/h (1 Bft) S 180 8,9 C 0,0 km/h (0 Bft)
17.06.2015 05:25 11,1 C 10,9 C 89 % 1021,9 hPa 0,0 mm 2,3 km/h (1 Bft) SW 225 9,4 C 3,6 km/h (1 Bft)
17.06.2015 05:30 11,1 C 10,9 C 89 % 1021,9 hPa 0,0 mm 1,3 km/h (1 Bft) S 180 9,4 C 0,0 km/h (0 Bft)
17.06.2015 05:35 11,0 C 10,8 C 89 % 1021,9 hPa 0,0 mm 1,0 km/h (0 Bft) NW 315 9,3 C 0,0 km/h (0 Bft)
17.06.2015 05:40 11,0 C 10,8 C 89 % 1021,9 hPa 0,0 mm 0,0 km/h (0 Bft) SW 225 9,3 C 0,0 km/h (0 Bft)
17.06.2015 05:45 11,0 C 10,8 C 89 % 1021,9 hPa 0,0 mm 0,0 km/h (0 Bft) S 180 9,3 C 0,0 km/h (0 Bft)
17.06.2015 05:50 11,0 C 10,8 C 89 % 1021,9 hPa 0,0 mm 0,0 km/h (0 Bft) W-SW 247 9,3 C 0,0 km/h (0 Bft)
17.06.2015 05:55 11,0 C 10,8 C 89 % 1022,1 hPa 0,0 mm 0,0 km/h (0 Bft) NW 315 9,3 C 0,0 km/h (0 Bft)
17.06.2015 06:00 11,0 C 10,9 C 87 % 1022,1 hPa 0,0 mm 0,0 km/h (0 Bft) NW 315 8,9 C 0,0 km/h (0 Bft)
17.06.2015 06:05 11,0 C 10,9 C 87 % 1022,1 hPa 0,0 mm 0,0 km/h (0 Bft) NW 315 8,9 C 0,0 km/h (0 Bft)
17.06.2015 06:10 11,1 C 11,1 C 87 % 1022,1 hPa 0,0 mm 0,0 km/h (0 Bft) S 180 9,0 C 0,0 km/h (0 Bft)
17.06.2015 06:15 11,2 C 11,2 C 87 % 1022,0 hPa 0,0 mm 0,0 km/h (0 Bft) S-SW 202 9,1 C 0,0 km/h (0 Bft)
17.06.2015 06:20 11,3 C 11,3 C 87 % 1022,0 hPa 0,0 mm 0,0 km/h (0 Bft) W 270 9,2 C 0,0 km/h (0 Bft)
17.06.2015 06:25 11,3 C 11,4 C 87 % 1022,0 hPa 0,0 mm 0,0 km/h (0 Bft) W 270 9,2 C 0,0 km/h (0 Bft)
17.06.2015 06:30 11,3 C 11,4 C 87 % 1022,0 hPa 0,0 mm 0,0 km/h (0 Bft) W-NW 292 9,2 C 0,0 km/h (0 Bft)
17.06.2015 06:35 11,4 C 11,4 C 87 % 1022,2 hPa 0,0 mm 0,0 km/h (0 Bft) NW 315 9,3 C 0,0 km/h (0 Bft)
17.06.2015 06:40 11,4 C 11,5 C 87 % 1022,2 hPa 0,0 mm 0,0 km/h (0 Bft) W-NW 292 9,3 C 0,0 km/h (0 Bft)
17.06.2015 06:45 11,5 C 11,6 C 87 % 1022,2 hPa 0,0 mm 0,0 km/h (0 Bft) W-NW 292 9,4 C 0,0 km/h (0 Bft)
17.06.2015 06:50 11,5 C 11,7 C 87 % 1022,2 hPa 0,0 mm 0,0 km/h (0 Bft) NW 315 9,4 C 0,0 km/h (0 Bft)
17.06.2015 06:55 11,6 C 11,7 C 87 % 1022,1 hPa 0,0 mm 0,0 km/h (0 Bft) NW 315 9,5 C 0,0 km/h (0 Bft)
17.06.2015 07:00 11,6 C 11,8 C 87 % 1022,1 hPa 0,0 mm 0,0 km/h (0 Bft) W 270 9,5 C 0,0 km/h (0 Bft)
17.06.2015 07:05 11,7 C 11,8 C 87 % 1022,1 hPa 0,0 mm 0,0 km/h (0 Bft) W 270 9,6 C 0,0 km/h (0 Bft)
17.06.2015 07:10 11,8 C 12,0 C 87 % 1022,1 hPa 0,0 mm 0,0 km/h (0 Bft) NW 315 9,7 C 0,0 km/h (0 Bft)
17.06.2015 07:15 11,8 C 12,0 C 87 % 1022,1 hPa 0,0 mm 0,0 km/h (0 Bft) W-NW 292 9,7 C 0,0 km/h (0 Bft)
17.06.2015 07:20 11,9 C 12,1 C 87 % 1022,1 hPa 0,0 mm 0,3 km/h (0 Bft) NW 315 9,8 C 0,0 km/h (0 Bft)
17.06.2015 07:25 11,9 C 12,2 C 87 % 1022,1 hPa 0,0 mm 0,3 km/h (0 Bft) W 270 9,8 C 0,0 km/h (0 Bft)
17.06.2015 07:30 12,0 C 12,3 C 87 % 1022,1 hPa 0,0 mm 0,0 km/h (0 Bft) N 360 9,9 C 0,0 km/h (0 Bft)
17.06.2015 07:35 12,0 C 12,4 C 87 % 1022,1 hPa 0,0 mm 0,0 km/h (0 Bft) W-NW 292 9,9 C 0,0 km/h (0 Bft)
17.06.2015 07:40 12,1 C 12,6 C 87 % 1022,1 hPa 0,0 mm 0,0 km/h (0 Bft) N-NW 337 10,0 C 0,0 km/h (0 Bft)
17.06.2015 07:45 12,1 C 12,7 C 87 % 1022,1 hPa 0,0 mm 0,0 km/h (0 Bft) N-NO 22 10,0 C 0,0 km/h (0 Bft)
17.06.2015 07:50 12,2 C 12,8 C 87 % 1022,1 hPa 0,0 mm 1,0 km/h (0 Bft) NO 45 10,1 C 5,2 km/h (1 Bft)
17.06.2015 07:55 12,2 C 12,8 C 87 % 1022,2 hPa 0,0 mm 2,1 km/h (1 Bft) N-NO 22 10,1 C 7,3 km/h (2 Bft)
17.06.2015 08:00 12,2 C 12,9 C 86 % 1022,2 hPa 0,0 mm 3,4 km/h (1 Bft) NO 45 9,9 C 4,9 km/h (1 Bft)
17.06.2015 08:05 12,3 C 13,1 C 86 % 1022,2 hPa 0,0 mm 4,7 km/h (1 Bft) N-NO 22 10,0 C 7,3 km/h (2 Bft)
17.06.2015 08:10 12,4 C 13,3 C 86 % 1022,2 hPa 0,0 mm 4,1 km/h (1 Bft) N-NO 22 10,1 C 8,5 km/h (2 Bft)
17.06.2015 08:15 12,4 C 13,3 C 86 % 1022,2 hPa 0,0 mm 4,1 km/h (1 Bft) N-NW 337 10,1 C 0,0 km/h (0 Bft)
17.06.2015 08:20 12,5 C 13,4 C 86 % 1022,2 hPa 0,0 mm 3,9 km/h (1 Bft) N-NO 22 10,2 C 9,1 km/h (2 Bft)
17.06.2015 08:25 12,5 C 13,3 C 86 % 1022,2 hPa 0,0 mm 3,6 km/h (1 Bft) NO 45 10,2 C 4,4 km/h (1 Bft)
17.06.2015 08:30 12,5 C 13,3 C 86 % 1022,2 hPa 0,0 mm 3,6 km/h (1 Bft) N-NO 22 10,2 C 7,5 km/h (2 Bft)
17.06.2015 08:35 12,5 C 13,4 C 86 % 1022,3 hPa 0,0 mm 3,1 km/h (1 Bft) S-SW 202 10,2 C 8,0 km/h (2 Bft)
17.06.2015 08:40 12,6 C 13,4 C 86 % 1022,3 hPa 0,0 mm 4,1 km/h (1 Bft) O-NO 67 10,3 C 5,4 km/h (1 Bft)
17.06.2015 08:45 12,6 C 13,4 C 85 % 1022,3 hPa 0,0 mm 3,1 km/h (1 Bft) O-NO 67 10,1 C 3,9 km/h (1 Bft)
17.06.2015 08:50 12,7 C 13,5 C 85 % 1022,3 hPa 0,0 mm 1,3 km/h (1 Bft) O-NO 67 10,2 C 0,0 km/h (0 Bft)
17.06.2015 08:55 12,6 C 13,6 C 85 % 1022,4 hPa 0,0 mm 1,0 km/h (0 Bft) O-NO 67 10,1 C 0,0 km/h (0 Bft)
17.06.2015 09:00 12,7 C 13,7 C 85 % 1022,4 hPa 0,0 mm 1,6 km/h (1 Bft) O-NO 67 10,2 C 5,2 km/h (1 Bft)
17.06.2015 09:05 12,6 C 13,6 C 85 % 1022,4 hPa 0,0 mm 2,6 km/h (1 Bft) O-NO 67 10,1 C 7,8 km/h (2 Bft)
17.06.2015 09:10 12,6 C 13,6 C 84 % 1022,4 hPa 0,0 mm 3,6 km/h (1 Bft) O-NO 67 10,0 C 4,4 km/h (1 Bft)
17.06.2015 09:15 12,6 C 13,8 C 84 % 1022,5 hPa 0,0 mm 2,8 km/h (1 Bft) O-NO 67 10,0 C 4,4 km/h (1 Bft)
17.06.2015 09:20 12,7 C 14,0 C 84 % 1022,5 hPa 0,0 mm 3,4 km/h (1 Bft) O-NO 67 10,1 C 3,6 km/h (1 Bft)
17.06.2015 09:25 12,9 C 14,3 C 84 % 1022,5 hPa 0,0 mm 2,3 km/h (1 Bft) SO 135 10,3 C 0,0 km/h (0 Bft)
17.06.2015 09:30 13,0 C 14,8 C 83 % 1022,5 hPa 0,0 mm 1,3 km/h (1 Bft) N 360 10,2 C 4,4 km/h (1 Bft)
17.06.2015 09:35 13,0 C 14,8 C 83 % 1022,8 hPa 0,0 mm 1,6 km/h (1 Bft) O-NO 67 10,2 C 3,6 km/h (1 Bft)
17.06.2015 09:40 12,9 C 14,7 C 83 % 1022,8 hPa 0,0 mm 2,8 km/h (1 Bft) NO 45 10,1 C 4,9 km/h (1 Bft)
17.06.2015 09:45 13,0 C 14,5 C 82 % 1022,8 hPa 0,0 mm 2,8 km/h (1 Bft) O 90 10,0 C 4,1 km/h (1 Bft)
17.06.2015 09:50 13,0 C 14,6 C 82 % 1022,8 hPa 0,0 mm 3,4 km/h (1 Bft) N-NO 22 10,0 C 6,7 km/h (2 Bft)
17.06.2015 09:55 13,0 C 14,7 C 82 % 1022,8 hPa 0,0 mm 3,6 km/h (1 Bft) NO 45 10,0 C 3,4 km/h (1 Bft)
17.06.2015 10:00 13,1 C 14,9 C 82 % 1022,8 hPa 0,0 mm 3,9 km/h (1 Bft) N-NO 22 10,1 C 5,7 km/h (1 Bft)
17.06.2015 10:05 13,2 C 15,1 C 82 % 1022,8 hPa 0,0 mm 3,6 km/h (1 Bft) N-NO 22 10,2 C 3,4 km/h (1 Bft)
17.06.2015 10:10 13,3 C 15,3 C 81 % 1022,8 hPa 0,0 mm 4,1 km/h (1 Bft) O-NO 67 10,1 C 4,1 km/h (1 Bft)
17.06.2015 10:15 13,3 C 15,3 C 81 % 1022,9 hPa 0,0 mm 4,7 km/h (1 Bft) NO 45 10,1 C 3,9 km/h (1 Bft)
17.06.2015 10:20 13,4 C 15,5 C 81 % 1022,9 hPa 0,0 mm 3,9 km/h (1 Bft) NO 45 10,2 C 4,9 km/h (1 Bft)
17.06.2015 10:25 13,5 C 15,5 C 80 % 1022,9 hPa 0,0 mm 4,1 km/h (1 Bft) O-NO 67 10,1 C 6,0 km/h (2 Bft)
17.06.2015 10:30 13,4 C 15,4 C 80 % 1022,9 hPa 0,0 mm 5,4 km/h (1 Bft) O-NO 67 10,0 C 9,6 km/h (2 Bft)
17.06.2015 10:35 13,6 C 15,6 C 80 % 1023,2 hPa 0,0 mm 4,7 km/h (1 Bft) N-NO 22 10,2 C 0,0 km/h (0 Bft)
17.06.2015 10:40 13,7 C 16,1 C 80 % 1023,2 hPa 0,0 mm 4,4 km/h (1 Bft) N-NO 22 10,3 C 5,2 km/h (1 Bft)
17.06.2015 10:45 13,8 C 16,2 C 80 % 1023,2 hPa 0,0 mm 5,4 km/h (1 Bft) NO 45 10,4 C 4,1 km/h (1 Bft)
17.06.2015 10:50 14,0 C 16,8 C 79 % 1023,2 hPa 0,0 mm 4,9 km/h (1 Bft) NO 45 10,4 C 5,4 km/h (1 Bft)
17.06.2015 10:55 14,2 C 17,4 C 79 % 1023,3 hPa 0,0 mm 3,6 km/h (1 Bft) N-NO 22 10,6 C 3,6 km/h (1 Bft)
17.06.2015 11:00 14,2 C 17,4 C 78 % 1023,3 hPa 0,0 mm 3,6 km/h (1 Bft) N 360 10,4 C 10,4 km/h (2 Bft)
17.06.2015 11:05 14,2 C 17,2 C 78 % 1023,3 hPa 0,0 mm 3,4 km/h (1 Bft) NO 45 10,4 C 5,2 km/h (1 Bft)
17.06.2015 11:10 14,1 C 16,8 C 78 % 1023,3 hPa 0,0 mm 1,6 km/h (1 Bft) N-NO 22 10,3 C 6,5 km/h (2 Bft)
17.06.2015 11:15 14,1 C 16,5 C 78 % 1023,4 hPa 0,0 mm 1,3 km/h (1 Bft) O-NO 67 10,3 C 0,0 km/h (0 Bft)
17.06.2015 11:20 14,0 C 16,2 C 77 % 1023,4 hPa 0,0 mm 1,0 km/h (0 Bft) N-NW 337 10,0 C 3,9 km/h (1 Bft)
17.06.2015 11:25 13,9 C 15,8 C 77 % 1023,4 hPa 0,0 mm 1,0 km/h (0 Bft) NO 45 9,9 C 0,0 km/h (0 Bft)
17.06.2015 11:30 13,9 C 15,4 C 77 % 1023,4 hPa 0,0 mm 0,8 km/h (0 Bft) NW 315 9,9 C 0,0 km/h (0 Bft)
17.06.2015 11:35 14,0 C 15,5 C 77 % 1023,5 hPa 0,0 mm 0,0 km/h (0 Bft) NW 315 10,0 C 0,0 km/h (0 Bft)
17.06.2015 11:40 14,2 C 16,0 C 77 % 1023,5 hPa 0,0 mm 0,0 km/h (0 Bft) O-NO 67 10,2 C 0,0 km/h (0 Bft)
17.06.2015 11:45 14,3 C 16,4 C 76 % 1023,5 hPa 0,0 mm 0,0 km/h (0 Bft) NW 315 10,1 C 0,0 km/h (0 Bft)
17.06.2015 11:50 14,5 C 16,7 C 77 % 1023,5 hPa 0,0 mm 0,0 km/h (0 Bft) S-SW 202 10,5 C 0,0 km/h (0 Bft)
17.06.2015 11:55 14,6 C 16,6 C 77 % 1023,3 hPa 0,0 mm 1,0 km/h (0 Bft) W-NW 292 10,6 C 4,7 km/h (1 Bft)
17.06.2015 12:00 14,5 C 16,0 C 76 % 1023,3 hPa 0,0 mm 2,1 km/h (1 Bft) NW 315 10,3 C 3,1 km/h (1 Bft)
17.06.2015 12:05 14,5 C 15,9 C 76 % 1023,3 hPa 0,0 mm 2,8 km/h (1 Bft) N-NO 22 10,3 C 0,0 km/h (0 Bft)
17.06.2015 12:10 14,4 C 15,6 C 76 % 1023,3 hPa 0,0 mm 3,1 km/h (1 Bft) NW 315 10,2 C 6,5 km/h (2 Bft)
17.06.2015 12:15 14,4 C 15,5 C 76 % 1023,5 hPa 0,0 mm 4,1 km/h (1 Bft) O-NO 67 10,2 C 4,4 km/h (1 Bft)
17.06.2015 12:20 14,4 C 15,6 C 77 % 1023,5 hPa 0,0 mm 5,7 km/h (1 Bft) NW 315 10,4 C 11,1 km/h (2 Bft)
17.06.2015 12:25 14,5 C 15,8 C 77 % 1023,5 hPa 0,0 mm 6,5 km/h (2 Bft) N-NO 22 10,5 C 10,6 km/h (2 Bft)
17.06.2015 12:30 14,5 C 16,0 C 76 % 1023,5 hPa 0,0 mm 6,0 km/h (2 Bft) N-NO 22 10,3 C 11,4 km/h (2 Bft)
17.06.2015 12:35 14,5 C 16,0 C 76 % 1023,4 hPa 0,0 mm 4,9 km/h (1 Bft) N-NW 337 10,3 C 7,0 km/h (2 Bft)
17.06.2015 12:40 14,5 C 16,0 C 76 % 1023,4 hPa 0,0 mm 4,7 km/h (1 Bft) NW 315 10,3 C 0,0 km/h (0 Bft)
17.06.2015 12:45 14,6 C 16,0 C 76 % 1023,4 hPa 0,0 mm 5,7 km/h (1 Bft) N-NW 337 10,4 C 8,0 km/h (2 Bft)
17.06.2015 12:50 14,7 C 16,3 C 76 % 1023,4 hPa 0,0 mm 6,5 km/h (2 Bft) NW 315 10,5 C 11,9 km/h (2 Bft)
17.06.2015 12:55 15,0 C 16,6 C 76 % 1023,3 hPa 0,0 mm 6,0 km/h (2 Bft) N-NO 22 10,8 C 6,0 km/h (2 Bft)
17.06.2015 13:00 15,5 C 18,1 C 75 % 1023,3 hPa 0,0 mm 5,2 km/h (1 Bft) O-NO 67 11,1 C 12,9 km/h (3 Bft)
17.06.2015 13:05 15,9 C 19,0 C 75 % 1023,3 hPa 0,0 mm 4,9 km/h (1 Bft) W-NW 292 11,5 C 0,0 km/h (0 Bft)
17.06.2015 13:10 17,2 C 21,2 C 73 % 1023,3 hPa 0,0 mm 5,4 km/h (1 Bft) N-NO 22 12,3 C 13,7 km/h (3 Bft)
17.06.2015 13:15 17,2 C 22,2 C 71 % 1023,4 hPa 0,0 mm 6,5 km/h (2 Bft) O-SO 112 11,9 C 10,1 km/h (2 Bft)
17.06.2015 13:20 16,5 C 21,3 C 70 % 1023,4 hPa 0,0 mm 5,2 km/h (1 Bft) NO 45 11,0 C 0,0 km/h (0 Bft)
17.06.2015 13:25 16,7 C 22,0 C 70 % 1023,4 hPa 0,0 mm 4,1 km/h (1 Bft) N-NO 22 11,2 C 9,8 km/h (2 Bft)
17.06.2015 13:30 17,3 C 23,5 C 69 % 1023,4 hPa 0,0 mm 4,7 km/h (1 Bft) NW 315 11,6 C 4,9 km/h (1 Bft)
17.06.2015 13:35 16,7 C 21,9 C 69 % 1023,9 hPa 0,0 mm 6,5 km/h (2 Bft) NW 315 11,0 C 6,0 km/h (2 Bft)
17.06.2015 13:40 16,2 C 19,6 C 70 % 1023,9 hPa 0,0 mm 8,0 km/h (2 Bft) N-NO 22 10,7 C 15,8 km/h (3 Bft)
17.06.2015 13:45 16,2 C 19,2 C 69 % 1023,9 hPa 0,0 mm 8,0 km/h (2 Bft) O-NO 67 10,5 C 10,1 km/h (2 Bft)
17.06.2015 13:50 16,1 C 19,5 C 70 % 1023,9 hPa 0,0 mm 8,0 km/h (2 Bft) O-NO 67 10,6 C 11,7 km/h (2 Bft)
17.06.2015 13:55 15,8 C 18,7 C 70 % 1024,0 hPa 0,0 mm 8,3 km/h (2 Bft) O-SO 112 10,3 C 9,3 km/h (2 Bft)
17.06.2015 14:00 15,3 C 17,6 C 70 % 1024,0 hPa 0,0 mm 9,8 km/h (2 Bft) O-SO 112 9,9 C 18,6 km/h (3 Bft)
17.06.2015 14:05 15,2 C 17,2 C 71 % 1024,0 hPa 0,0 mm 8,8 km/h (2 Bft) O-NO 67 10,0 C 8,5 km/h (2 Bft)
17.06.2015 14:10 15,0 C 16,8 C 71 % 1024,0 hPa 0,0 mm 7,5 km/h (2 Bft) N-NW 337 9,8 C 12,4 km/h (3 Bft)
17.06.2015 14:15 15,1 C 16,7 C 72 % 1023,8 hPa 0,0 mm 7,8 km/h (2 Bft) N-NW 337 10,1 C 18,9 km/h (3 Bft)
17.06.2015 14:20 15,2 C 16,8 C 72 % 1023,8 hPa 0,0 mm 8,3 km/h (2 Bft) N-NW 337 10,2 C 10,4 km/h (2 Bft)
17.06.2015 14:25 15,4 C 17,2 C 72 % 1023,8 hPa 0,0 mm 9,6 km/h (2 Bft) O 90 10,4 C 5,7 km/h (1 Bft)
17.06.2015 14:30 15,7 C 17,8 C 72 % 1023,8 hPa 0,0 mm 7,3 km/h (2 Bft) N-NW 337 10,7 C 10,6 km/h (2 Bft)
17.06.2015 14:35 16,3 C 18,8 C 70 % 1023,8 hPa 0,0 mm 6,0 km/h (2 Bft) NW 315 10,8 C 9,8 km/h (2 Bft)
17.06.2015 14:40 16,7 C 19,9 C 70 % 1023,8 hPa 0,0 mm 8,5 km/h (2 Bft) N-NO 22 11,2 C 6,0 km/h (2 Bft)
17.06.2015 14:45 16,7 C 19,8 C 69 % 1023,8 hPa 0,0 mm 9,1 km/h (2 Bft) NW 315 11,0 C 14,5 km/h (3 Bft)
17.06.2015 14:50 16,4 C 19,1 C 67 % 1023,8 hPa 0,0 mm 9,3 km/h (2 Bft) N-NW 337 10,3 C 8,8 km/h (2 Bft)
17.06.2015 14:55 17,0 C 19,8 C 68 % 1023,5 hPa 0,0 mm 8,3 km/h (2 Bft) NO 45 11,0 C 9,8 km/h (2 Bft)
17.06.2015 15:00 16,9 C 21,1 C 68 % 1023,5 hPa 0,0 mm 6,2 km/h (2 Bft) N-NW 337 11,0 C 8,8 km/h (2 Bft)
17.06.2015 15:05 16,7 C 20,2 C 68 % 1023,5 hPa 0,0 mm 7,5 km/h (2 Bft) NW 315 10,8 C 8,8 km/h (2 Bft)
17.06.2015 15:10 16,9 C 19,7 C 69 % 1023,5 hPa 0,0 mm 7,3 km/h (2 Bft) NW 315 11,2 C 12,9 km/h (3 Bft)
17.06.2015 15:15 17,0 C 20,1 C 68 % 1023,7 hPa 0,0 mm 7,5 km/h (2 Bft) NW 315 11,0 C 8,0 km/h (2 Bft)
17.06.2015 15:20 17,3 C 21,0 C 67 % 1023,7 hPa 0,0 mm 8,5 km/h (2 Bft) N-NO 22 11,1 C 6,2 km/h (2 Bft)
17.06.2015 15:25 17,3 C 20,9 C 66 % 1023,7 hPa 0,0 mm 8,8 km/h (2 Bft) N-NW 337 10,9 C 14,8 km/h (3 Bft)
17.06.2015 15:30 18,0 C 22,2 C 65 % 1023,7 hPa 0,0 mm 8,5 km/h (2 Bft) NW 315 11,3 C 19,7 km/h (3 Bft)
17.06.2015 15:35 18,3 C 22,9 C 65 % 1023,7 hPa 0,0 mm 8,5 km/h (2 Bft) N-NW 337 11,6 C 16,1 km/h (3 Bft)
17.06.2015 15:40 17,3 C 21,9 C 64 % 1023,7 hPa 0,0 mm 8,5 km/h (2 Bft) N-NW 337 10,4 C 8,5 km/h (2 Bft)
17.06.2015 15:45 16,9 C 20,2 C 65 % 1023,7 hPa 0,0 mm 7,8 km/h (2 Bft) NW 315 10,3 C 2,6 km/h (1 Bft)
17.06.2015 15:50 16,9 C 20,0 C 65 % 1023,7 hPa 0,0 mm 6,0 km/h (2 Bft) N-NW 337 10,3 C 5,4 km/h (1 Bft)
17.06.2015 15:55 17,3 C 20,9 C 66 % 1023,7 hPa 0,0 mm 4,9 km/h (1 Bft) W-NW 292 10,9 C 11,4 km/h (2 Bft)
17.06.2015 16:00 17,5 C 21,1 C 65 % 1023,7 hPa 0,0 mm 5,4 km/h (1 Bft) NW 315 10,8 C 8,8 km/h (2 Bft)
17.06.2015 16:05 17,6 C 21,5 C 65 % 1023,7 hPa 0,0 mm 6,7 km/h (2 Bft) NW 315 10,9 C 8,5 km/h (2 Bft)
17.06.2015 16:10 17,3 C 21,6 C 63 % 1023,7 hPa 0,0 mm 7,5 km/h (2 Bft) NO 45 10,2 C 9,8 km/h (2 Bft)
17.06.2015 16:15 17,0 C 20,9 C 64 % 1023,9 hPa 0,0 mm 7,0 km/h (2 Bft) N-NW 337 10,1 C 9,3 km/h (2 Bft)
17.06.2015 16:20 16,9 C 20,9 C 65 % 1023,9 hPa 0,0 mm 5,7 km/h (1 Bft) NW 315 10,3 C 8,5 km/h (2 Bft)
17.06.2015 16:25 17,0 C 20,5 C 65 % 1023,9 hPa 0,0 mm 5,7 km/h (1 Bft) N 360 10,4 C 12,4 km/h (3 Bft)
17.06.2015 16:30 17,3 C 21,1 C 65 % 1023,9 hPa 0,0 mm 5,7 km/h (1 Bft) N-NW 337 10,7 C 12,4 km/h (3 Bft)
17.06.2015 16:35 17,1 C 20,3 C 63 % 1023,2 hPa 0,0 mm 8,8 km/h (2 Bft) NW 315 10,0 C 12,4 km/h (3 Bft)
17.06.2015 16:40 16,7 C 18,8 C 64 % 1023,2 hPa 0,0 mm 9,8 km/h (2 Bft) W 270 9,9 C 19,9 km/h (4 Bft)
17.06.2015 16:45 16,5 C 18,1 C 64 % 1023,2 hPa 0,0 mm 9,1 km/h (2 Bft) NW 315 9,7 C 11,4 km/h (2 Bft)
17.06.2015 16:50 16,5 C 17,8 C 65 % 1023,2 hPa 0,0 mm 7,8 km/h (2 Bft) NW 315 9,9 C 10,1 km/h (2 Bft)
17.06.2015 16:55 16,7 C 19,2 C 65 % 1023,2 hPa 0,0 mm 7,5 km/h (2 Bft) W-NW 292 10,1 C 7,3 km/h (2 Bft)
17.06.2015 17:00 17,1 C 20,6 C 64 % 1023,2 hPa 0,0 mm 9,6 km/h (2 Bft) W 270 10,2 C 13,7 km/h (3 Bft)
17.06.2015 17:05 17,0 C 20,2 C 63 % 1023,2 hPa 0,0 mm 9,1 km/h (2 Bft) N-NO 22 9,9 C 9,8 km/h (2 Bft)
17.06.2015 17:10 16,9 C 19,4 C 63 % 1023,2 hPa 0,0 mm 9,1 km/h (2 Bft) N-NW 337 9,8 C 13,5 km/h (3 Bft)
17.06.2015 17:15 16,8 C 19,0 C 63 % 1023,2 hPa 0,0 mm 8,0 km/h (2 Bft) W-NW 292 9,7 C 4,9 km/h (1 Bft)
17.06.2015 17:20 17,0 C 19,2 C 63 % 1023,2 hPa 0,0 mm 7,0 km/h (2 Bft) W-NW 292 9,9 C 5,4 km/h (1 Bft)
17.06.2015 17:25 17,1 C 19,2 C 61 % 1023,2 hPa 0,0 mm 7,8 km/h (2 Bft) W-NW 292 9,5 C 8,3 km/h (2 Bft)
17.06.2015 17:30 17,2 C 19,0 C 62 % 1023,2 hPa 0,0 mm 8,3 km/h (2 Bft) NW 315 9,9 C 13,5 km/h (3 Bft)
17.06.2015 17:35 17,0 C 18,6 C 60 % 1023,2 hPa 0,0 mm 9,6 km/h (2 Bft) W-NW 292 9,2 C 10,6 km/h (2 Bft)
17.06.2015 17:40 16,7 C 18,2 C 61 % 1023,2 hPa 0,0 mm 9,3 km/h (2 Bft) W-NW 292 9,1 C 21,0 km/h (4 Bft)
17.06.2015 17:45 16,7 C 18,2 C 61 % 1023,2 hPa 0,0 mm 8,0 km/h (2 Bft) NW 315 9,1 C 10,1 km/h (2 Bft)
17.06.2015 17:50 16,8 C 18,2 C 61 % 1023,2 hPa 0,0 mm 8,8 km/h (2 Bft) W 270 9,2 C 13,2 km/h (3 Bft)
17.06.2015 17:55 16,8 C 18,4 C 62 % 1022,7 hPa 0,0 mm 8,0 km/h (2 Bft) W 270 9,5 C 9,6 km/h (2 Bft)
17.06.2015 18:00 16,7 C 17,9 C 61 % 1022,7 hPa 0,0 mm 7,8 km/h (2 Bft) NW 315 9,1 C 8,3 km/h (2 Bft)
17.06.2015 18:05 16,6 C 17,8 C 62 % 1022,7 hPa 0,0 mm 8,3 km/h (2 Bft) N-NW 337 9,3 C 5,7 km/h (1 Bft)
17.06.2015 18:10 16,6 C 17,8 C 61 % 1022,7 hPa 0,0 mm 6,5 km/h (2 Bft) N-NW 337 9,0 C 10,1 km/h (2 Bft)
17.06.2015 18:15 16,7 C 17,9 C 61 % 1022,8 hPa 0,0 mm 5,7 km/h (1 Bft) W-SW 247 9,1 C 7,5 km/h (2 Bft)
17.06.2015 18:20 16,9 C 18,6 C 61 % 1022,8 hPa 0,0 mm 6,7 km/h (2 Bft) NW 315 9,3 C 6,7 km/h (2 Bft)
17.06.2015 18:25 16,9 C 18,7 C 60 % 1022,8 hPa 0,0 mm 6,7 km/h (2 Bft) NW 315 9,1 C 9,6 km/h (2 Bft)
17.06.2015 18:30 16,7 C 18,2 C 60 % 1022,8 hPa 0,0 mm 7,5 km/h (2 Bft) N-NW 337 8,9 C 12,9 km/h (3 Bft)
17.06.2015 18:35 16,8 C 18,5 C 60 % 1022,7 hPa 0,0 mm 8,8 km/h (2 Bft) NO 45 9,0 C 7,3 km/h (2 Bft)
17.06.2015 18:40 16,8 C 18,8 C 60 % 1022,7 hPa 0,0 mm 9,3 km/h (2 Bft) N-NW 337 9,0 C 7,8 km/h (2 Bft)
17.06.2015 18:45 16,5 C 18,2 C 60 % 1022,7 hPa 0,0 mm 7,8 km/h (2 Bft) N-NO 22 8,7 C 8,3 km/h (2 Bft)
17.06.2015 18:50 16,3 C 17,7 C 61 % 1022,7 hPa 0,0 mm 5,2 km/h (1 Bft) NW 315 8,8 C 8,0 km/h (2 Bft)
17.06.2015 18:55 16,2 C 17,2 C 61 % 1022,8 hPa 0,0 mm 4,7 km/h (1 Bft) NW 315 8,7 C 3,1 km/h (1 Bft)
17.06.2015 19:00 16,0 C 16,7 C 61 % 1022,8 hPa 0,0 mm 5,2 km/h (1 Bft) NW 315 8,5 C 7,0 km/h (2 Bft)
17.06.2015 19:05 16,0 C 16,7 C 61 % 1022,8 hPa 0,0 mm 4,7 km/h (1 Bft) N-NO 22 8,5 C 4,4 km/h (1 Bft)
17.06.2015 19:10 16,1 C 16,8 C 62 % 1022,8 hPa 0,0 mm 2,8 km/h (1 Bft) NW 315 8,8 C 4,4 km/h (1 Bft)
17.06.2015 19:15 16,1 C 16,9 C 62 % 1022,6 hPa 0,0 mm 1,6 km/h (1 Bft) N-NO 22 8,8 C 0,0 km/h (0 Bft)
17.06.2015 19:20 16,2 C 17,1 C 63 % 1022,6 hPa 0,0 mm 1,0 km/h (0 Bft) N-NO 22 9,1 C 3,9 km/h (1 Bft)
17.06.2015 19:25 16,2 C 17,1 C 63 % 1022,6 hPa 0,0 mm 0,8 km/h (0 Bft) N-NO 22 9,1 C 0,0 km/h (0 Bft)
17.06.2015 19:30 16,2 C 17,1 C 63 % 1022,6 hPa 0,0 mm 1,0 km/h (0 Bft) N-NO 22 9,1 C 0,0 km/h (0 Bft)
17.06.2015 19:35 16,2 C 17,1 C 63 % 1022,6 hPa 0,0 mm 0,8 km/h (0 Bft) N-NW 337 9,1 C 0,0 km/h (0 Bft)
17.06.2015 19:40 16,0 C 16,9 C 63 % 1022,6 hPa 0,0 mm 1,8 km/h (1 Bft) N-NW 337 9,0 C 0,0 km/h (0 Bft)
17.06.2015 19:45 16,0 C 16,8 C 63 % 1022,6 hPa 0,0 mm 2,6 km/h (1 Bft) NW 315 9,0 C 3,4 km/h (1 Bft)
17.06.2015 19:50 16,0 C 16,9 C 64 % 1022,6 hPa 0,0 mm 1,8 km/h (1 Bft) NW 315 9,2 C 0,0 km/h (0 Bft)
17.06.2015 19:55 16,0 C 16,7 C 65 % 1022,8 hPa 0,0 mm 1,8 km/h (1 Bft) N-NW 337 9,4 C 3,9 km/h (1 Bft)
17.06.2015 20:00 15,9 C 16,4 C 66 % 1022,8 hPa 0,0 mm 0,8 km/h (0 Bft) NW 315 9,6 C 0,0 km/h (0 Bft)
17.06.2015 20:05 15,6 C 16,2 C 67 % 1022,8 hPa 0,0 mm 0,5 km/h (0 Bft) NW 315 9,5 C 0,0 km/h (0 Bft)
17.06.2015 20:10 15,3 C 15,8 C 68 % 1022,8 hPa 0,0 mm 0,0 km/h (0 Bft) W 270 9,4 C 0,0 km/h (0 Bft)
17.06.2015 20:15 15,1 C 15,5 C 68 % 1022,8 hPa 0,0 mm 0,0 km/h (0 Bft) W 270 9,2 C 0,0 km/h (0 Bft)
17.06.2015 20:20 14,8 C 15,1 C 69 % 1022,8 hPa 0,0 mm 0,0 km/h (0 Bft) W 270 9,2 C 2,6 km/h (1 Bft)
17.06.2015 20:25 14,5 C 14,7 C 69 % 1022,8 hPa 0,0 mm 1,0 km/h (0 Bft) S 180 8,9 C 2,8 km/h (1 Bft)
17.06.2015 20:30 14,2 C 14,3 C 71 % 1022,8 hPa 0,0 mm 1,8 km/h (1 Bft) S 180 9,0 C 2,6 km/h (1 Bft)
17.06.2015 20:35 14,0 C 14,0 C 71 % 1022,5 hPa 0,0 mm 1,0 km/h (0 Bft) SW 225 8,8 C 0,0 km/h (0 Bft)
17.06.2015 20:40 13,7 C 13,7 C 72 % 1022,5 hPa 0,0 mm 1,6 km/h (1 Bft) S-SO 157 8,7 C 3,6 km/h (1 Bft)
17.06.2015 20:45 13,5 C 13,5 C 73 % 1022,5 hPa 0,0 mm 2,3 km/h (1 Bft) S-SO 157 8,8 C 3,4 km/h (1 Bft)
17.06.2015 20:50 13,1 C 13,4 C 75 % 1022,5 hPa 0,0 mm 3,1 km/h (1 Bft) S 180 8,8 C 5,7 km/h (1 Bft)
17.06.2015 20:55 13,1 C 13,2 C 75 % 1022,4 hPa 0,0 mm 3,6 km/h (1 Bft) S 180 8,8 C 4,1 km/h (1 Bft)
17.06.2015 21:00 12,9 C 12,9 C 76 % 1022,4 hPa 0,0 mm 3,9 km/h (1 Bft) S 180 8,8 C 6,7 km/h (2 Bft)
17.06.2015 21:05 12,8 C 12,8 C 76 % 1022,4 hPa 0,0 mm 3,6 km/h (1 Bft) SO 135 8,7 C 3,9 km/h (1 Bft)
17.06.2015 21:10 12,6 C 12,7 C 76 % 1022,4 hPa 0,0 mm 2,6 km/h (1 Bft) SO 135 8,5 C 0,0 km/h (0 Bft)
17.06.2015 21:15 12,5 C 12,5 C 77 % 1022,5 hPa 0,0 mm 1,6 km/h (1 Bft) S-SO 157 8,6 C 2,6 km/h (1 Bft)
17.06.2015 21:20 12,3 C 12,5 C 77 % 1022,5 hPa 0,0 mm 0,5 km/h (0 Bft) SO 135 8,4 C 0,0 km/h (0 Bft)
17.06.2015 21:25 12,4 C 12,4 C 78 % 1022,5 hPa 0,0 mm 0,0 km/h (0 Bft) S-SO 157 8,7 C 0,0 km/h (0 Bft)
17.06.2015 21:30 12,4 C 12,4 C 78 % 1022,5 hPa 0,0 mm 0,3 km/h (0 Bft) S 180 8,7 C 0,0 km/h (0 Bft)
17.06.2015 21:35 12,4 C 12,5 C 78 % 1022,6 hPa 0,0 mm 0,8 km/h (0 Bft) S-SO 157 8,7 C 4,1 km/h (1 Bft)
17.06.2015 21:40 12,5 C 12,6 C 79 % 1022,6 hPa 0,0 mm 2,6 km/h (1 Bft) SW 225 9,0 C 6,2 km/h (2 Bft)
17.06.2015 21:45 12,5 C 12,6 C 79 % 1022,6 hPa 0,0 mm 4,1 km/h (1 Bft) S 180 9,0 C 3,4 km/h (1 Bft)
17.06.2015 21:50 12,5 C 12,5 C 79 % 1022,6 hPa 0,0 mm 4,4 km/h (1 Bft) SW 225 9,0 C 5,4 km/h (1 Bft)
17.06.2015 21:55 12,4 C 12,4 C 79 % 1022,7 hPa 0,0 mm 2,6 km/h (1 Bft) S 180 8,9 C 3,1 km/h (1 Bft)
17.06.2015 22:00 12,4 C 12,4 C 79 % 1022,7 hPa 0,0 mm 1,8 km/h (1 Bft) S 180 8,9 C 0,0 km/h (0 Bft)
17.06.2015 22:05 12,4 C 12,3 C 79 % 1022,7 hPa 0,0 mm 1,3 km/h (1 Bft) S 180 8,9 C 2,6 km/h (1 Bft)
17.06.2015 22:10 12,3 C 12,3 C 79 % 1022,7 hPa 0,0 mm 1,8 km/h (1 Bft) S 180 8,8 C 3,9 km/h (1 Bft)
17.06.2015 22:15 12,2 C 12,2 C 78 % 1022,7 hPa 0,0 mm 2,8 km/h (1 Bft) SO 135 8,5 C 4,1 km/h (1 Bft)
17.06.2015 22:20 12,0 C 11,9 C 78 % 1022,7 hPa 0,0 mm 3,1 km/h (1 Bft) S 180 8,3 C 0,0 km/h (0 Bft)
17.06.2015 22:25 11,9 C 11,8 C 79 % 1022,7 hPa 0,0 mm 2,3 km/h (1 Bft) O-SO 112 8,4 C 3,1 km/h (1 Bft)
17.06.2015 22:30 11,7 C 11,6 C 79 % 1022,7 hPa 0,0 mm 2,8 km/h (1 Bft) S 180 8,2 C 4,7 km/h (1 Bft)
17.06.2015 22:35 11,7 C 11,6 C 79 % 1022,9 hPa 0,0 mm 3,6 km/h (1 Bft) S-SO 157 8,2 C 4,1 km/h (1 Bft)
17.06.2015 22:40 11,5 C 11,4 C 79 % 1022,9 hPa 0,0 mm 2,8 km/h (1 Bft) S-SO 157 8,0 C 0,0 km/h (0 Bft)
17.06.2015 22:45 11,4 C 11,3 C 80 % 1022,9 hPa 0,0 mm 2,6 km/h (1 Bft) S-SO 157 8,1 C 3,1 km/h (1 Bft)
17.06.2015 22:50 11,2 C 11,1 C 80 % 1022,9 hPa 0,0 mm 2,3 km/h (1 Bft) S 180 7,9 C 0,0 km/h (0 Bft)
17.06.2015 22:55 11,1 C 11,0 C 81 % 1022,8 hPa 0,0 mm 2,1 km/h (1 Bft) S 180 8,0 C 3,6 km/h (1 Bft)
17.06.2015 23:00 10,8 C 10,7 C 81 % 1022,8 hPa 0,0 mm 1,6 km/h (1 Bft) SO 135 7,7 C 3,1 km/h (1 Bft)
17.06.2015 23:05 10,7 C 10,6 C 82 % 1022,8 hPa 0,0 mm 1,6 km/h (1 Bft) S 180 7,8 C 6,7 km/h (2 Bft)
17.06.2015 23:10 10,6 C 10,4 C 82 % 1022,8 hPa 0,0 mm 0,8 km/h (0 Bft) S 180 7,7 C 0,0 km/h (0 Bft)
17.06.2015 23:15 10,4 C 10,2 C 82 % 1022,7 hPa 0,0 mm 0,3 km/h (0 Bft) S 180 7,5 C 0,0 km/h (0 Bft)
17.06.2015 23:20 10,2 C 10,0 C 83 % 1022,7 hPa 0,0 mm 0,0 km/h (0 Bft) S 180 7,4 C 0,0 km/h (0 Bft)
17.06.2015 23:25 10,2 C 10,0 C 83 % 1022,7 hPa 0,0 mm 0,3 km/h (0 Bft) S-SO 157 7,4 C 0,0 km/h (0 Bft)
17.06.2015 23:30 10,4 C 10,2 C 84 % 1022,7 hPa 0,0 mm 0,3 km/h (0 Bft) S 180 7,8 C 0,0 km/h (0 Bft)
17.06.2015 23:35 10,4 C 10,3 C 82 % 1022,8 hPa 0,0 mm 0,0 km/h (0 Bft) S 180 7,5 C 0,0 km/h (0 Bft)
17.06.2015 23:40 10,6 C 10,4 C 85 % 1022,8 hPa 0,0 mm 0,0 km/h (0 Bft) W-SW 247 8,2 C 0,0 km/h (0 Bft)
17.06.2015 23:45 10,7 C 10,5 C 85 % 1022,8 hPa 0,0 mm 0,0 km/h (0 Bft) S-SO 157 8,3 C 0,0 km/h (0 Bft)
17.06.2015 23:50 10,9 C 10,8 C 82 % 1022,8 hPa 0,0 mm 0,0 km/h (0 Bft) S 180 7,9 C 0,0 km/h (0 Bft)
17.06.2015 23:55 11,0 C 10,8 C 85 % 1022,6 hPa 0,0 mm 0,0 km/h (0 Bft) S 180 8,6 C 0,0 km/h (0 Bft)
_ Min-Zeit 02:00 02:00 18:45 01:30 - 23:55 - - 23:25 23:55
Minimum _ 10,0 C 9,9 C 60 % 1021,1 hPa - 0,0 km/h (0 Bft) - - 7,4 C 0,0 km/h (0 Bft)
_ Max-Zeit 15:35 13:30 03:20 14:10 23:55 16:40 - - 13:10 17:40
Maximum _ 18,3 C 23,5 C 91 % 1024,0 hPa 0,0 mm 9,8 km/h
W (2 Bft)
- - 12,3 C 21,0 km/h
W-NW (4 Bft)
Durchschnitt _ 13,4 C 14,4 C 78 % 1022,6 hPa #0,0 mm 3,0 km/h (1 Bft) NW - 9,5 C 4,1 km/h (1 Bft)